﻿"Plot Title: 10397703"
"#","Date Time, GMT-07:00","Temp, °C (LGR S/N: 10397703, SEN S/N: 10397703)"
1,04/29/14 06:41:10 PM,25.125
2,04/29/14 06:56:10 PM,25.416
3,04/29/14 07:11:10 PM,24.931
4,04/29/14 07:26:10 PM,24.931
5,04/29/14 07:41:10 PM,24.835
6,04/29/14 07:56:10 PM,24.835
7,04/29/14 08:11:10 PM,24.738
8,04/29/14 08:26:10 PM,24.641
9,04/29/14 08:41:10 PM,24.545
10,04/29/14 08:56:10 PM,24.448
11,04/29/14 09:11:10 PM,24.351
12,04/29/14 09:26:10 PM,24.255
13,04/29/14 09:41:10 PM,24.158
14,04/29/14 09:56:10 PM,24.158
15,04/29/14 10:11:10 PM,24.062
16,04/29/14 10:26:10 PM,23.966
17,04/29/14 10:41:10 PM,23.869
18,04/29/14 10:56:10 PM,23.773
19,04/29/14 11:11:10 PM,23.581
20,04/29/14 11:26:10 PM,23.388
21,04/29/14 11:41:10 PM,23.196
22,04/29/14 11:56:10 PM,23.004
23,04/30/14 12:11:10 AM,22.717
24,04/30/14 12:26:10 AM,22.525
25,04/30/14 12:41:10 AM,22.238
26,04/30/14 12:56:10 AM,21.951
27,04/30/14 01:11:10 AM,21.664
28,04/30/14 01:26:10 AM,21.378
29,04/30/14 01:41:10 AM,21.091
30,04/30/14 01:56:10 AM,20.805
31,04/30/14 02:11:10 AM,20.519
32,04/30/14 02:26:10 AM,20.138
33,04/30/14 02:41:10 AM,19.853
34,04/30/14 02:56:10 AM,19.567
35,04/30/14 03:11:10 AM,19.187
36,04/30/14 03:26:10 AM,18.901
37,04/30/14 03:41:10 AM,18.521
38,04/30/14 03:56:10 AM,18.236
39,04/30/14 04:11:10 AM,17.950
40,04/30/14 04:26:10 AM,17.570
41,04/30/14 04:41:10 AM,17.284
42,04/30/14 04:56:10 AM,16.999
43,04/30/14 05:11:10 AM,16.713
44,04/30/14 05:26:10 AM,16.427
45,04/30/14 05:41:10 AM,16.237
46,04/30/14 05:56:10 AM,15.951
47,04/30/14 06:11:10 AM,15.664
48,04/30/14 06:26:10 AM,15.378
49,04/30/14 06:41:10 AM,15.187
50,04/30/14 06:56:10 AM,14.996
51,04/30/14 07:11:10 AM,14.709
52,04/30/14 07:26:10 AM,14.613
53,04/30/14 07:41:10 AM,14.421
54,04/30/14 07:56:10 AM,14.230
55,04/30/14 08:11:10 AM,14.230
56,04/30/14 08:26:10 AM,14.230
57,04/30/14 08:41:10 AM,14.325
58,04/30/14 08:56:10 AM,14.517
59,04/30/14 09:11:10 AM,14.900
60,04/30/14 09:26:10 AM,15.473
61,04/30/14 09:41:10 AM,15.951
62,04/30/14 09:56:10 AM,16.523
63,04/30/14 10:11:10 AM,16.999
64,04/30/14 10:26:10 AM,17.665
65,04/30/14 10:41:10 AM,19.092
66,04/30/14 10:56:10 AM,22.621
67,04/30/14 11:11:10 AM,28.060
68,04/30/14 11:26:10 AM,33.535
69,04/30/14 11:41:10 AM,37.604
70,04/30/14 11:56:10 AM,40.645
71,04/30/14 12:11:10 PM,40.071
72,04/30/14 12:26:10 PM,38.046
73,04/30/14 12:41:10 PM,36.620
74,04/30/14 12:56:10 PM,36.946
75,04/30/14 01:11:10 PM,40.300
76,04/30/14 01:26:10 PM,35.115
77,04/30/14 01:41:10 PM,33.222
78,04/30/14 01:56:10 PM,33.326
79,04/30/14 02:11:10 PM,33.222
80,04/30/14 02:26:10 PM,31.778
81,04/30/14 02:41:10 PM,31.472
82,04/30/14 02:56:10 PM,31.778
83,04/30/14 03:11:10 PM,31.676
84,04/30/14 03:26:10 PM,30.862
85,04/30/14 03:41:10 PM,31.064
86,04/30/14 03:56:10 PM,31.166
87,04/30/14 04:11:10 PM,30.963
88,04/30/14 04:26:10 PM,31.064
89,04/30/14 04:41:10 PM,31.880
90,04/30/14 04:56:10 PM,32.086
91,04/30/14 05:11:10 PM,32.497
92,04/30/14 05:26:10 PM,34.058
93,04/30/14 05:41:10 PM,35.435
94,04/30/14 05:56:10 PM,36.079
95,04/30/14 06:11:10 PM,35.328
96,04/30/14 06:26:10 PM,34.903
97,04/30/14 06:41:10 PM,34.585
98,04/30/14 06:56:10 PM,34.058
99,04/30/14 07:11:10 PM,33.639
100,04/30/14 07:26:10 PM,32.600
101,04/30/14 07:41:10 PM,31.778
102,04/30/14 07:56:10 PM,31.268
103,04/30/14 08:11:10 PM,30.659
104,04/30/14 08:26:10 PM,30.255
105,04/30/14 08:41:10 PM,29.853
106,04/30/14 08:56:10 PM,29.652
107,04/30/14 09:11:10 PM,29.352
108,04/30/14 09:26:10 PM,29.152
109,04/30/14 09:41:10 PM,28.953
110,04/30/14 09:56:10 PM,28.754
111,04/30/14 10:11:10 PM,28.456
112,04/30/14 10:26:10 PM,28.258
113,04/30/14 10:41:10 PM,27.862
114,04/30/14 10:56:10 PM,27.567
115,04/30/14 11:11:10 PM,27.173
116,04/30/14 11:26:10 PM,26.781
117,04/30/14 11:41:10 PM,26.390
118,04/30/14 11:56:10 PM,26.000
119,05/01/14 12:11:10 AM,25.610
120,05/01/14 12:26:10 AM,25.222
121,05/01/14 12:41:10 AM,24.835
122,05/01/14 12:56:10 AM,24.448
123,05/01/14 01:11:10 AM,24.062
124,05/01/14 01:26:10 AM,23.773
125,05/01/14 01:41:10 AM,23.388
126,05/01/14 01:56:10 AM,23.004
127,05/01/14 02:11:10 AM,22.717
128,05/01/14 02:26:10 AM,22.333
129,05/01/14 02:41:10 AM,21.951
130,05/01/14 02:56:10 AM,21.664
131,05/01/14 03:11:10 AM,21.282
132,05/01/14 03:26:10 AM,20.901
133,05/01/14 03:41:10 AM,20.615
134,05/01/14 03:56:10 AM,20.234
135,05/01/14 04:11:10 AM,19.948
136,05/01/14 04:26:10 AM,19.662
137,05/01/14 04:41:10 AM,19.377
138,05/01/14 04:56:10 AM,18.996
139,05/01/14 05:11:10 AM,18.711
140,05/01/14 05:26:10 AM,18.426
141,05/01/14 05:41:10 AM,18.140
142,05/01/14 05:56:10 AM,17.855
143,05/01/14 06:11:10 AM,17.570
144,05/01/14 06:26:10 AM,17.284
145,05/01/14 06:41:10 AM,16.999
146,05/01/14 06:56:10 AM,16.808
147,05/01/14 07:11:10 AM,16.618
148,05/01/14 07:26:10 AM,16.427
149,05/01/14 07:41:10 AM,16.332
150,05/01/14 07:56:10 AM,16.332
151,05/01/14 08:11:10 AM,16.427
152,05/01/14 08:26:10 AM,16.618
153,05/01/14 08:41:10 AM,16.808
154,05/01/14 08:56:10 AM,17.189
155,05/01/14 09:11:10 AM,17.475
156,05/01/14 09:26:10 AM,17.950
157,05/01/14 09:41:10 AM,18.426
158,05/01/14 09:56:10 AM,19.282
159,05/01/14 10:11:10 AM,20.329
160,05/01/14 10:26:10 AM,21.091
161,05/01/14 10:41:10 AM,24.738
162,05/01/14 10:56:10 AM,26.585
163,05/01/14 11:11:10 AM,27.665
164,05/01/14 11:26:10 AM,28.655
165,05/01/14 11:41:10 AM,29.853
166,05/01/14 11:56:10 AM,29.552
167,05/01/14 12:11:10 PM,35.864
168,05/01/14 12:26:10 PM,39.050
169,05/01/14 12:41:10 PM,39.276
170,05/01/14 12:56:10 PM,28.754
171,05/01/14 01:11:10 PM,23.004
172,05/01/14 01:26:10 PM,21.187
173,05/01/14 01:41:10 PM,21.091
174,05/01/14 01:56:10 PM,21.378
175,05/01/14 02:11:10 PM,21.760
176,05/01/14 02:26:10 PM,22.238
177,05/01/14 02:41:10 PM,15.951
178,05/01/14 02:56:10 PM,14.517
179,05/01/14 03:11:10 PM,13.654
180,05/01/14 03:26:10 PM,13.269
181,05/01/14 03:41:10 PM,12.690
182,05/01/14 03:56:10 PM,14.996
183,05/01/14 04:11:10 PM,14.613
184,05/01/14 04:26:10 PM,12.207
185,05/01/14 04:41:10 PM,11.916
186,05/01/14 04:56:10 PM,12.497
187,05/01/14 05:11:10 PM,14.709
188,05/01/14 05:26:10 PM,13.365
189,05/01/14 05:41:10 PM,13.076
190,05/01/14 05:56:10 PM,12.690
191,05/01/14 06:11:10 PM,13.076
192,05/01/14 06:26:10 PM,13.269
193,05/01/14 06:41:10 PM,13.076
194,05/01/14 06:56:10 PM,13.173
195,05/01/14 07:11:10 PM,12.883
196,05/01/14 07:26:10 PM,12.594
197,05/01/14 07:41:10 PM,12.207
198,05/01/14 07:56:10 PM,12.110
199,05/01/14 08:11:10 PM,12.013
200,05/01/14 08:26:10 PM,11.819
201,05/01/14 08:41:10 PM,11.625
202,05/01/14 08:56:10 PM,11.528
203,05/01/14 09:11:10 PM,11.528
204,05/01/14 09:26:10 PM,11.528
205,05/01/14 09:41:10 PM,12.110
206,05/01/14 09:56:10 PM,12.207
207,05/01/14 10:11:10 PM,13.269
208,05/01/14 10:26:10 PM,13.846
209,05/01/14 10:41:10 PM,13.942
210,05/01/14 10:56:10 PM,12.401
211,05/01/14 11:11:10 PM,12.207
212,05/01/14 11:26:10 PM,12.497
213,05/01/14 11:41:10 PM,12.207
214,05/01/14 11:56:10 PM,12.110
215,05/02/14 12:11:10 AM,12.207
216,05/02/14 12:26:10 AM,11.819
217,05/02/14 12:41:10 AM,11.819
218,05/02/14 12:56:10 AM,11.625
219,05/02/14 01:11:10 AM,11.819
220,05/02/14 01:26:10 AM,12.497
221,05/02/14 01:41:10 AM,12.304
222,05/02/14 01:56:10 AM,12.013
223,05/02/14 02:11:10 AM,11.916
224,05/02/14 02:26:10 AM,12.497
225,05/02/14 02:41:10 AM,12.690
226,05/02/14 02:56:10 AM,12.690
227,05/02/14 03:11:10 AM,12.594
228,05/02/14 03:26:10 AM,12.594
229,05/02/14 03:41:10 AM,12.690
230,05/02/14 03:56:10 AM,12.787
231,05/02/14 04:11:10 AM,12.787
232,05/02/14 04:26:10 AM,12.690
233,05/02/14 04:41:10 AM,12.401
234,05/02/14 04:56:10 AM,11.819
235,05/02/14 05:11:10 AM,11.528
236,05/02/14 05:26:10 AM,11.625
237,05/02/14 05:41:10 AM,11.431
238,05/02/14 05:56:10 AM,11.431
239,05/02/14 06:11:10 AM,11.528
240,05/02/14 06:26:10 AM,11.431
241,05/02/14 06:41:10 AM,11.431
242,05/02/14 06:56:10 AM,11.625
243,05/02/14 07:11:10 AM,11.819
244,05/02/14 07:26:10 AM,12.304
245,05/02/14 07:41:10 AM,12.207
246,05/02/14 07:56:10 AM,12.013
247,05/02/14 08:11:10 AM,12.110
248,05/02/14 08:26:10 AM,12.690
249,05/02/14 08:41:10 AM,12.883
250,05/02/14 08:56:10 AM,12.690
251,05/02/14 09:11:10 AM,12.690
252,05/02/14 09:26:10 AM,12.594
253,05/02/14 09:41:10 AM,12.401
254,05/02/14 09:56:10 AM,12.304
255,05/02/14 10:11:10 AM,12.304
256,05/02/14 10:26:10 AM,12.304
257,05/02/14 10:41:10 AM,12.304
258,05/02/14 10:56:10 AM,12.207
259,05/02/14 11:11:10 AM,12.207
260,05/02/14 11:26:10 AM,11.916
261,05/02/14 11:41:10 AM,11.916
262,05/02/14 11:56:10 AM,12.207
263,05/02/14 12:11:10 PM,12.304
264,05/02/14 12:26:10 PM,12.304
265,05/02/14 12:41:10 PM,12.304
266,05/02/14 12:56:10 PM,12.304
267,05/02/14 01:11:10 PM,12.304
268,05/02/14 01:26:10 PM,12.497
269,05/02/14 01:41:10 PM,12.497
270,05/02/14 01:56:10 PM,12.497
271,05/02/14 02:11:10 PM,12.787
272,05/02/14 02:26:10 PM,12.883
273,05/02/14 02:41:10 PM,13.461
274,05/02/14 02:56:10 PM,13.942
275,05/02/14 03:11:10 PM,14.038
276,05/02/14 03:26:10 PM,14.038
277,05/02/14 03:41:10 PM,13.846
278,05/02/14 03:56:10 PM,13.846
279,05/02/14 04:11:10 PM,13.076
280,05/02/14 04:26:10 PM,12.304
281,05/02/14 04:41:10 PM,12.401
282,05/02/14 04:56:10 PM,12.110
283,05/02/14 05:11:10 PM,11.819
284,05/02/14 05:26:10 PM,11.625
285,05/02/14 05:41:10 PM,12.013
286,05/02/14 05:56:10 PM,12.207
287,05/02/14 06:11:10 PM,12.401
288,05/02/14 06:26:10 PM,12.690
289,05/02/14 06:41:10 PM,12.787
290,05/02/14 06:56:10 PM,12.883
291,05/02/14 07:11:10 PM,12.883
292,05/02/14 07:26:10 PM,12.883
293,05/02/14 07:41:10 PM,12.787
294,05/02/14 07:56:10 PM,12.690
295,05/02/14 08:11:10 PM,12.594
296,05/02/14 08:26:10 PM,12.401
297,05/02/14 08:41:10 PM,12.013
298,05/02/14 08:56:10 PM,12.207
299,05/02/14 09:11:10 PM,12.110
300,05/02/14 09:26:10 PM,12.207
301,05/02/14 09:41:10 PM,12.304
302,05/02/14 09:56:10 PM,12.304
303,05/02/14 10:11:10 PM,12.401
304,05/02/14 10:26:10 PM,12.304
305,05/02/14 10:41:10 PM,12.207
306,05/02/14 10:56:10 PM,12.207
307,05/02/14 11:11:10 PM,12.304
308,05/02/14 11:26:10 PM,12.207
309,05/02/14 11:41:10 PM,12.207
310,05/02/14 11:56:10 PM,12.304
311,05/03/14 12:11:10 AM,12.207
312,05/03/14 12:26:10 AM,12.207
313,05/03/14 12:41:10 AM,12.207
314,05/03/14 12:56:10 AM,12.304
315,05/03/14 01:11:10 AM,12.304
316,05/03/14 01:26:10 AM,12.304
317,05/03/14 01:41:10 AM,12.304
318,05/03/14 01:56:10 AM,12.110
319,05/03/14 02:11:10 AM,12.110
320,05/03/14 02:26:10 AM,12.207
321,05/03/14 02:41:10 AM,12.207
322,05/03/14 02:56:10 AM,12.207
323,05/03/14 03:11:10 AM,12.207
324,05/03/14 03:26:10 AM,12.207
325,05/03/14 03:41:10 AM,12.207
326,05/03/14 03:56:10 AM,12.207
327,05/03/14 04:11:10 AM,12.207
328,05/03/14 04:26:10 AM,12.207
329,05/03/14 04:41:10 AM,12.304
330,05/03/14 04:56:10 AM,12.401
331,05/03/14 05:11:10 AM,12.497
332,05/03/14 05:26:10 AM,12.401
333,05/03/14 05:41:10 AM,12.110
334,05/03/14 05:56:10 AM,12.207
335,05/03/14 06:11:10 AM,12.304
336,05/03/14 06:26:10 AM,12.304
337,05/03/14 06:41:10 AM,12.401
338,05/03/14 06:56:10 AM,12.304
339,05/03/14 07:11:10 AM,12.207
340,05/03/14 07:26:10 AM,12.304
341,05/03/14 07:41:10 AM,12.013
342,05/03/14 07:56:10 AM,12.013
343,05/03/14 08:11:10 AM,12.013
344,05/03/14 08:26:10 AM,12.110
345,05/03/14 08:41:10 AM,12.110
346,05/03/14 08:56:10 AM,12.304
347,05/03/14 09:11:10 AM,12.304
348,05/03/14 09:26:10 AM,12.304
349,05/03/14 09:41:10 AM,12.401
350,05/03/14 09:56:10 AM,12.401
351,05/03/14 10:11:10 AM,12.401
352,05/03/14 10:26:10 AM,12.304
353,05/03/14 10:41:10 AM,12.401
354,05/03/14 10:56:10 AM,12.401
355,05/03/14 11:11:10 AM,12.207
356,05/03/14 11:26:10 AM,12.013
357,05/03/14 11:41:10 AM,12.110
358,05/03/14 11:56:10 AM,12.207
359,05/03/14 12:11:10 PM,12.304
360,05/03/14 12:26:10 PM,12.110
361,05/03/14 12:41:10 PM,12.013
362,05/03/14 12:56:10 PM,12.207
363,05/03/14 01:11:10 PM,12.304
364,05/03/14 01:26:10 PM,12.207
365,05/03/14 01:41:10 PM,12.110
366,05/03/14 01:56:10 PM,12.110
367,05/03/14 02:11:10 PM,12.110
368,05/03/14 02:26:10 PM,12.207
369,05/03/14 02:41:10 PM,12.207
370,05/03/14 02:56:10 PM,12.207
371,05/03/14 03:11:10 PM,12.401
372,05/03/14 03:26:10 PM,12.690
373,05/03/14 03:41:10 PM,12.690
374,05/03/14 03:56:10 PM,12.690
375,05/03/14 04:11:10 PM,12.690
376,05/03/14 04:26:10 PM,12.787
377,05/03/14 04:41:10 PM,12.787
378,05/03/14 04:56:10 PM,12.594
379,05/03/14 05:11:10 PM,12.401
380,05/03/14 05:26:10 PM,12.207
381,05/03/14 05:41:10 PM,12.207
382,05/03/14 05:56:10 PM,12.594
383,05/03/14 06:11:10 PM,12.690
384,05/03/14 06:26:10 PM,12.690
385,05/03/14 06:41:10 PM,12.690
386,05/03/14 06:56:10 PM,12.497
387,05/03/14 07:11:10 PM,12.304
388,05/03/14 07:26:10 PM,12.497
389,05/03/14 07:41:10 PM,12.594
390,05/03/14 07:56:10 PM,12.594
391,05/03/14 08:11:10 PM,12.497
392,05/03/14 08:26:10 PM,12.497
393,05/03/14 08:41:10 PM,12.497
394,05/03/14 08:56:10 PM,12.497
395,05/03/14 09:11:10 PM,12.497
396,05/03/14 09:26:10 PM,12.497
397,05/03/14 09:41:10 PM,12.497
398,05/03/14 09:56:10 PM,12.497
399,05/03/14 10:11:10 PM,12.497
400,05/03/14 10:26:10 PM,12.497
401,05/03/14 10:41:10 PM,12.497
402,05/03/14 10:56:10 PM,12.304
403,05/03/14 11:11:10 PM,12.304
404,05/03/14 11:26:10 PM,12.304
405,05/03/14 11:41:10 PM,12.207
406,05/03/14 11:56:10 PM,12.207
407,05/04/14 12:11:10 AM,12.110
408,05/04/14 12:26:10 AM,12.110
409,05/04/14 12:41:10 AM,12.207
410,05/04/14 12:56:10 AM,12.207
411,05/04/14 01:11:10 AM,12.304
412,05/04/14 01:26:10 AM,12.207
413,05/04/14 01:41:10 AM,12.207
414,05/04/14 01:56:10 AM,12.304
415,05/04/14 02:11:10 AM,12.304
416,05/04/14 02:26:10 AM,12.207
417,05/04/14 02:41:10 AM,12.110
418,05/04/14 02:56:10 AM,12.013
419,05/04/14 03:11:10 AM,12.207
420,05/04/14 03:26:10 AM,12.207
421,05/04/14 03:41:10 AM,12.110
422,05/04/14 03:56:10 AM,12.013
423,05/04/14 04:11:10 AM,12.013
424,05/04/14 04:26:10 AM,12.110
425,05/04/14 04:41:10 AM,12.110
426,05/04/14 04:56:10 AM,12.110
427,05/04/14 05:11:10 AM,12.207
428,05/04/14 05:26:10 AM,12.110
429,05/04/14 05:41:10 AM,12.110
430,05/04/14 05:56:10 AM,12.207
431,05/04/14 06:11:10 AM,12.110
432,05/04/14 06:26:10 AM,12.110
433,05/04/14 06:41:10 AM,12.013
434,05/04/14 06:56:10 AM,11.916
435,05/04/14 07:11:10 AM,11.916
436,05/04/14 07:26:10 AM,12.013
437,05/04/14 07:41:10 AM,12.013
438,05/04/14 07:56:10 AM,12.013
439,05/04/14 08:11:10 AM,12.013
440,05/04/14 08:26:10 AM,11.916
441,05/04/14 08:41:10 AM,11.916
442,05/04/14 08:56:10 AM,12.013
443,05/04/14 09:11:10 AM,12.013
444,05/04/14 09:26:10 AM,11.916
445,05/04/14 09:41:10 AM,11.916
446,05/04/14 09:56:10 AM,11.916
447,05/04/14 10:11:10 AM,11.916
448,05/04/14 10:26:10 AM,11.916
449,05/04/14 10:41:10 AM,11.916
450,05/04/14 10:56:10 AM,12.013
451,05/04/14 11:11:10 AM,11.916
452,05/04/14 11:26:10 AM,11.916
453,05/04/14 11:41:10 AM,11.916
454,05/04/14 11:56:10 AM,11.916
455,05/04/14 12:11:10 PM,11.819
456,05/04/14 12:26:10 PM,11.819
457,05/04/14 12:41:10 PM,11.916
458,05/04/14 12:56:10 PM,11.916
459,05/04/14 01:11:10 PM,11.916
460,05/04/14 01:26:10 PM,11.819
461,05/04/14 01:41:10 PM,11.819
462,05/04/14 01:56:10 PM,11.916
463,05/04/14 02:11:10 PM,12.013
464,05/04/14 02:26:10 PM,12.110
465,05/04/14 02:41:10 PM,12.110
466,05/04/14 02:56:10 PM,12.110
467,05/04/14 03:11:10 PM,12.497
468,05/04/14 03:26:10 PM,12.401
469,05/04/14 03:41:10 PM,12.401
470,05/04/14 03:56:10 PM,12.401
471,05/04/14 04:11:10 PM,12.497
472,05/04/14 04:26:10 PM,12.594
473,05/04/14 04:41:10 PM,12.304
474,05/04/14 04:56:10 PM,12.207
475,05/04/14 05:11:10 PM,12.110
476,05/04/14 05:26:10 PM,12.013
477,05/04/14 05:41:10 PM,11.916
478,05/04/14 05:56:10 PM,11.916
479,05/04/14 06:11:10 PM,11.916
480,05/04/14 06:26:10 PM,11.916
481,05/04/14 06:41:10 PM,11.916
482,05/04/14 06:56:10 PM,11.916
483,05/04/14 07:11:10 PM,11.916
484,05/04/14 07:26:10 PM,12.013
485,05/04/14 07:41:10 PM,12.207
486,05/04/14 07:56:10 PM,12.304
487,05/04/14 08:11:10 PM,12.304
488,05/04/14 08:26:10 PM,12.304
489,05/04/14 08:41:10 PM,12.304
490,05/04/14 08:56:10 PM,12.304
491,05/04/14 09:11:10 PM,12.304
492,05/04/14 09:26:10 PM,12.304
493,05/04/14 09:41:10 PM,12.304
494,05/04/14 09:56:10 PM,12.304
495,05/04/14 10:11:10 PM,12.207
496,05/04/14 10:26:10 PM,12.207
497,05/04/14 10:41:10 PM,12.207
498,05/04/14 10:56:10 PM,12.013
499,05/04/14 11:11:10 PM,12.207
500,05/04/14 11:26:10 PM,12.207
501,05/04/14 11:41:10 PM,12.207
502,05/04/14 11:56:10 PM,12.207
503,05/05/14 12:11:10 AM,12.207
504,05/05/14 12:26:10 AM,12.207
505,05/05/14 12:41:10 AM,12.207
506,05/05/14 12:56:10 AM,12.207
507,05/05/14 01:11:10 AM,12.110
508,05/05/14 01:26:10 AM,12.013
509,05/05/14 01:41:10 AM,12.110
510,05/05/14 01:56:10 AM,12.013
511,05/05/14 02:11:10 AM,11.819
512,05/05/14 02:26:10 AM,11.916
513,05/05/14 02:41:10 AM,11.819
514,05/05/14 02:56:10 AM,12.013
515,05/05/14 03:11:10 AM,12.013
516,05/05/14 03:26:10 AM,11.916
517,05/05/14 03:41:10 AM,12.013
518,05/05/14 03:56:10 AM,11.916
519,05/05/14 04:11:10 AM,12.013
520,05/05/14 04:26:10 AM,12.110
521,05/05/14 04:41:10 AM,12.110
522,05/05/14 04:56:10 AM,12.110
523,05/05/14 05:11:10 AM,12.110
524,05/05/14 05:26:10 AM,12.110
525,05/05/14 05:41:10 AM,12.110
526,05/05/14 05:56:10 AM,12.110
527,05/05/14 06:11:10 AM,12.207
528,05/05/14 06:26:10 AM,12.207
529,05/05/14 06:41:10 AM,12.207
530,05/05/14 06:56:10 AM,12.207
531,05/05/14 07:11:10 AM,12.207
532,05/05/14 07:26:10 AM,12.207
533,05/05/14 07:41:10 AM,12.207
534,05/05/14 07:56:10 AM,12.207
535,05/05/14 08:11:10 AM,11.916
536,05/05/14 08:26:10 AM,11.916
537,05/05/14 08:41:10 AM,11.819
538,05/05/14 08:56:10 AM,12.013
539,05/05/14 09:11:10 AM,12.013
540,05/05/14 09:26:10 AM,12.013
541,05/05/14 09:41:10 AM,11.819
542,05/05/14 09:56:10 AM,11.819
543,05/05/14 10:11:10 AM,11.819
544,05/05/14 10:26:10 AM,11.722
545,05/05/14 10:41:10 AM,11.722
546,05/05/14 10:56:10 AM,11.916
547,05/05/14 11:11:10 AM,12.013
548,05/05/14 11:26:10 AM,12.110
549,05/05/14 11:41:10 AM,12.013
550,05/05/14 11:56:10 AM,11.819
551,05/05/14 12:11:10 PM,11.819
552,05/05/14 12:26:10 PM,11.819
553,05/05/14 12:41:10 PM,11.916
554,05/05/14 12:56:10 PM,11.916
555,05/05/14 01:11:10 PM,11.916
556,05/05/14 01:26:10 PM,11.916
557,05/05/14 01:41:10 PM,11.916
558,05/05/14 01:56:10 PM,11.916
559,05/05/14 02:11:10 PM,11.916
560,05/05/14 02:26:10 PM,12.013
561,05/05/14 02:41:10 PM,12.110
562,05/05/14 02:56:10 PM,12.013
563,05/05/14 03:11:10 PM,12.110
564,05/05/14 03:26:10 PM,12.110
565,05/05/14 03:41:10 PM,12.207
566,05/05/14 03:56:10 PM,12.401
567,05/05/14 04:11:10 PM,13.269
568,05/05/14 04:26:10 PM,13.269
569,05/05/14 04:41:10 PM,13.076
570,05/05/14 04:56:10 PM,12.980
571,05/05/14 05:11:10 PM,12.690
572,05/05/14 05:26:10 PM,12.690
573,05/05/14 05:41:10 PM,12.594
574,05/05/14 05:56:10 PM,12.690
575,05/05/14 06:11:10 PM,12.594
576,05/05/14 06:26:10 PM,11.916
577,05/05/14 06:41:10 PM,11.916
578,05/05/14 06:56:10 PM,11.916
579,05/05/14 07:11:10 PM,11.916
580,05/05/14 07:26:10 PM,11.819
581,05/05/14 07:41:10 PM,11.722
582,05/05/14 07:56:10 PM,11.722
583,05/05/14 08:11:10 PM,11.819
584,05/05/14 08:26:10 PM,11.819
585,05/05/14 08:41:10 PM,12.304
586,05/05/14 08:56:10 PM,12.690
587,05/05/14 09:11:10 PM,12.690
588,05/05/14 09:26:10 PM,12.690
589,05/05/14 09:41:10 PM,12.690
590,05/05/14 09:56:10 PM,12.594
591,05/05/14 10:11:10 PM,12.594
592,05/05/14 10:26:10 PM,12.401
593,05/05/14 10:41:10 PM,12.110
594,05/05/14 10:56:10 PM,12.013
595,05/05/14 11:11:10 PM,12.304
596,05/05/14 11:26:10 PM,12.304
597,05/05/14 11:41:10 PM,12.304
598,05/05/14 11:56:10 PM,12.304
599,05/06/14 12:11:10 AM,12.304
600,05/06/14 12:26:10 AM,12.304
601,05/06/14 12:41:10 AM,12.207
602,05/06/14 12:56:10 AM,12.207
603,05/06/14 01:11:10 AM,12.401
604,05/06/14 01:26:10 AM,12.304
605,05/06/14 01:41:10 AM,12.110
606,05/06/14 01:56:10 AM,12.207
607,05/06/14 02:11:10 AM,12.207
608,05/06/14 02:26:10 AM,12.207
609,05/06/14 02:41:10 AM,12.207
610,05/06/14 02:56:10 AM,12.110
611,05/06/14 03:11:10 AM,11.819
612,05/06/14 03:26:10 AM,11.819
613,05/06/14 03:41:10 AM,11.916
614,05/06/14 03:56:10 AM,12.013
615,05/06/14 04:11:10 AM,12.207
616,05/06/14 04:26:10 AM,12.207
617,05/06/14 04:41:10 AM,12.207
618,05/06/14 04:56:10 AM,12.207
619,05/06/14 05:11:10 AM,12.110
620,05/06/14 05:26:10 AM,12.304
621,05/06/14 05:41:10 AM,12.207
622,05/06/14 05:56:10 AM,12.207
623,05/06/14 06:11:10 AM,12.304
624,05/06/14 06:26:10 AM,12.304
625,05/06/14 06:41:10 AM,12.207
626,05/06/14 06:56:10 AM,12.207
627,05/06/14 07:11:10 AM,12.304
628,05/06/14 07:26:10 AM,12.304
629,05/06/14 07:41:10 AM,12.304
630,05/06/14 07:56:10 AM,12.401
631,05/06/14 08:11:10 AM,12.304
632,05/06/14 08:26:10 AM,12.207
633,05/06/14 08:41:10 AM,12.110
634,05/06/14 08:56:10 AM,12.110
635,05/06/14 09:11:10 AM,12.013
636,05/06/14 09:26:10 AM,11.916
637,05/06/14 09:41:10 AM,11.916
638,05/06/14 09:56:10 AM,11.916
639,05/06/14 10:11:10 AM,11.916
640,05/06/14 10:26:10 AM,11.819
641,05/06/14 10:41:10 AM,12.110
642,05/06/14 10:56:10 AM,12.304
643,05/06/14 11:11:10 AM,12.304
644,05/06/14 11:26:10 AM,12.207
645,05/06/14 11:41:10 AM,12.401
646,05/06/14 11:56:10 AM,12.497
647,05/06/14 12:11:10 PM,12.690
648,05/06/14 12:26:10 PM,12.594
649,05/06/14 12:41:10 PM,12.207
650,05/06/14 12:56:10 PM,12.304
651,05/06/14 01:11:10 PM,12.013
652,05/06/14 01:26:10 PM,12.013
653,05/06/14 01:41:10 PM,12.013
654,05/06/14 01:56:10 PM,12.013
655,05/06/14 02:11:10 PM,12.013
656,05/06/14 02:26:10 PM,12.110
657,05/06/14 02:41:10 PM,12.304
658,05/06/14 02:56:10 PM,12.401
659,05/06/14 03:11:10 PM,12.401
660,05/06/14 03:26:10 PM,12.304
661,05/06/14 03:41:10 PM,12.401
662,05/06/14 03:56:10 PM,12.497
663,05/06/14 04:11:10 PM,12.497
664,05/06/14 04:26:10 PM,12.497
665,05/06/14 04:41:10 PM,12.883
666,05/06/14 04:56:10 PM,13.076
667,05/06/14 05:11:10 PM,13.076
668,05/06/14 05:26:10 PM,12.980
669,05/06/14 05:41:10 PM,13.076
670,05/06/14 05:56:10 PM,12.980
671,05/06/14 06:11:10 PM,12.883
672,05/06/14 06:26:10 PM,12.883
673,05/06/14 06:41:10 PM,12.883
674,05/06/14 06:56:10 PM,13.076
675,05/06/14 07:11:10 PM,13.173
676,05/06/14 07:26:10 PM,12.690
677,05/06/14 07:41:10 PM,12.207
678,05/06/14 07:56:10 PM,11.916
679,05/06/14 08:11:10 PM,11.722
680,05/06/14 08:26:10 PM,11.722
681,05/06/14 08:41:10 PM,11.722
682,05/06/14 08:56:10 PM,11.722
683,05/06/14 09:11:10 PM,11.722
684,05/06/14 09:26:10 PM,12.207
685,05/06/14 09:41:10 PM,12.594
686,05/06/14 09:56:10 PM,12.594
687,05/06/14 10:11:10 PM,12.690
688,05/06/14 10:26:10 PM,12.594
689,05/06/14 10:41:10 PM,12.497
690,05/06/14 10:56:10 PM,12.497
691,05/06/14 11:11:10 PM,12.207
692,05/06/14 11:26:10 PM,12.304
693,05/06/14 11:41:10 PM,12.304
694,05/06/14 11:56:10 PM,12.304
695,05/07/14 12:11:10 AM,12.207
696,05/07/14 12:26:10 AM,12.110
697,05/07/14 12:41:10 AM,12.207
698,05/07/14 12:56:10 AM,12.207
699,05/07/14 01:11:10 AM,12.207
700,05/07/14 01:26:10 AM,12.207
701,05/07/14 01:41:10 AM,12.207
702,05/07/14 01:56:10 AM,12.304
703,05/07/14 02:11:10 AM,12.207
704,05/07/14 02:26:10 AM,12.497
705,05/07/14 02:41:10 AM,12.401
706,05/07/14 02:56:10 AM,12.110
707,05/07/14 03:11:10 AM,12.110
708,05/07/14 03:26:10 AM,12.304
709,05/07/14 03:41:10 AM,12.304
710,05/07/14 03:56:10 AM,12.304
711,05/07/14 04:11:10 AM,12.304
712,05/07/14 04:26:10 AM,12.304
713,05/07/14 04:41:10 AM,12.401
714,05/07/14 04:56:10 AM,12.304
715,05/07/14 05:11:10 AM,12.401
716,05/07/14 05:26:10 AM,12.497
717,05/07/14 05:41:10 AM,12.401
718,05/07/14 05:56:10 AM,12.497
719,05/07/14 06:11:10 AM,12.401
720,05/07/14 06:26:10 AM,12.207
721,05/07/14 06:41:10 AM,12.207
722,05/07/14 06:56:10 AM,12.207
723,05/07/14 07:11:10 AM,12.207
724,05/07/14 07:26:10 AM,12.110
725,05/07/14 07:41:10 AM,12.110
726,05/07/14 07:56:10 AM,12.110
727,05/07/14 08:11:10 AM,12.207